TimeCDT,TemperatureF,Dew PointF,Humidity,Sea Level PressureIn,VisibilityMPH,Wind Direction,Wind SpeedMPH,Gust SpeedMPH,PrecipitationIn,Events,Conditions,WindDirDegrees,DateUTC
12:14 AM,43.7,23.0,44,30.17,10.0,NNW,5.8,-,N/A,,Clear,340,2013-05-12 05:14:00
12:34 AM,42.8,23.2,46,30.18,10.0,NNW,5.8,-,N/A,,Clear,330,2013-05-12 05:34:00
12:54 AM,42.8,23.0,46,30.18,10.0,NNW,8.1,-,N/A,,Clear,340,2013-05-12 05:54:00
1:14 AM,42.8,22.6,45,30.18,10.0,NNW,6.9,-,N/A,,Clear,340,2013-05-12 06:14:00
1:34 AM,43.0,22.1,44,30.18,10.0,North,8.1,-,N/A,,Clear,350,2013-05-12 06:34:00
1:54 AM,42.6,22.1,44,30.19,10.0,NNW,8.1,-,N/A,,Clear,340,2013-05-12 06:54:00
2:14 AM,41.5,22.8,47,30.19,10.0,NNW,6.9,-,N/A,,Clear,330,2013-05-12 07:14:00
2:34 AM,41.4,22.6,47,30.19,10.0,NNW,5.8,-,N/A,,Clear,340,2013-05-12 07:34:00
2:54 AM,40.5,23.0,50,30.19,10.0,NNW,6.9,-,N/A,,Clear,330,2013-05-12 07:54:00
3:14 AM,40.1,23.0,51,30.18,10.0,NW,5.8,-,N/A,,Clear,320,2013-05-12 08:14:00
3:34 AM,40.1,23.2,51,30.18,10.0,NW,6.9,-,N/A,,Clear,320,2013-05-12 08:34:00
3:54 AM,39.7,22.8,51,30.18,10.0,NNW,5.8,-,N/A,,Clear,330,2013-05-12 08:54:00
4:34 AM,39.2,23.0,52,30.18,10.0,NW,5.8,-,N/A,,Clear,320,2013-05-12 09:34:00
4:54 AM,38.7,23.4,54,30.18,10.0,NW,4.6,-,N/A,,Clear,320,2013-05-12 09:54:00
5:14 AM,37.9,23.5,56,30.18,10.0,NW,5.8,-,N/A,,Clear,320,2013-05-12 10:14:00
5:34 AM,37.6,23.4,57,30.19,10.0,NW,4.6,-,N/A,,Clear,320,2013-05-12 10:34:00
5:54 AM,37.4,23.2,57,30.20,10.0,NW,4.6,-,N/A,,Clear,310,2013-05-12 10:54:00
6:14 AM,37.6,23.9,58,30.20,10.0,NW,5.8,-,N/A,,Clear,320,2013-05-12 11:14:00
6:34 AM,38.5,23.5,55,30.20,10.0,NNW,5.8,-,N/A,,Clear,340,2013-05-12 11:34:00
6:54 AM,39.7,23.4,52,30.21,10.0,NNW,3.5,-,N/A,,Clear,330,2013-05-12 11:54:00
7:14 AM,41.0,23.5,50,30.22,10.0,NNW,4.6,-,N/A,,Clear,340,2013-05-12 12:14:00
7:34 AM,41.9,23.7,49,30.22,10.0,NNW,6.9,-,N/A,,Clear,340,2013-05-12 12:34:00
7:54 AM,42.8,22.5,45,30.22,10.0,NNW,8.1,-,N/A,,Clear,340,2013-05-12 12:54:00
8:14 AM,44.1,22.1,42,30.22,10.0,North,10.4,16.1,N/A,,Clear,350,2013-05-12 13:14:00
8:34 AM,45.0,21.0,39,30.22,10.0,North,11.5,-,N/A,,Clear,350,2013-05-12 13:34:00
8:54 AM,45.5,20.5,37,30.22,10.0,North,11.5,18.4,N/A,,Clear,360,2013-05-12 13:54:00
9:14 AM,46.4,20.7,36,30.22,10.0,NNW,12.7,23.0,N/A,,Clear,340,2013-05-12 14:14:00
9:34 AM,46.8,21.0,36,30.21,10.0,NNW,11.5,21.9,N/A,,Clear,330,2013-05-12 14:34:00
9:54 AM,47.1,21.2,36,30.21,10.0,NNW,11.5,20.7,N/A,,Clear,330,2013-05-12 14:54:00
10:14 AM,47.7,20.3,34,30.20,10.0,North,10.4,19.6,N/A,,Clear,360,2013-05-12 15:14:00
10:34 AM,48.2,21.0,34,30.21,10.0,North,11.5,19.6,N/A,,Clear,350,2013-05-12 15:34:00
10:54 AM,49.3,20.5,32,30.20,10.0,NNW,11.5,20.7,N/A,,Clear,330,2013-05-12 15:54:00
11:14 AM,50.4,19.9,30,30.20,10.0,NNW,11.5,18.4,N/A,,Clear,340,2013-05-12 16:14:00
11:34 AM,50.9,21.2,31,30.20,10.0,WNW,10.4,17.3,N/A,,Clear,290,2013-05-12 16:34:00
11:54 AM,51.4,20.1,29,30.20,10.0,NW,11.5,21.9,N/A,,Clear,320,2013-05-12 16:54:00
12:14 PM,51.8,18.7,27,30.18,10.0,North,10.4,20.7,N/A,,Clear,350,2013-05-12 17:14:00
12:34 PM,52.0,18.1,26,30.17,10.0,North,16.1,23.0,N/A,,Clear,360,2013-05-12 17:34:00
12:54 PM,53.2,18.9,26,30.17,10.0,WNW,6.9,16.1,N/A,,Clear,290,2013-05-12 17:54:00
1:14 PM,54.3,18.9,25,30.17,10.0,North,13.8,21.9,N/A,,Clear,350,2013-05-12 18:14:00
1:34 PM,54.9,19.0,25,30.16,10.0,WNW,11.5,16.1,N/A,,Clear,300,2013-05-12 18:34:00
1:54 PM,55.4,18.9,24,30.15,10.0,WNW,11.5,18.4,N/A,,Clear,300,2013-05-12 18:54:00
2:14 PM,56.1,18.3,23,30.15,10.0,WNW,10.4,17.3,N/A,,Clear,290,2013-05-12 19:14:00
2:34 PM,55.9,17.1,22,30.14,10.0,NNW,3.5,-,N/A,,Clear,330,2013-05-12 19:34:00
2:54 PM,56.5,15.4,20,30.13,10.0,North,8.1,16.1,N/A,,Clear,350,2013-05-12 19:54:00
3:14 PM,57.2,17.2,21,30.13,10.0,NNW,15.0,20.7,N/A,,Clear,330,2013-05-12 20:14:00
3:34 PM,57.7,16.9,20,30.13,10.0,WNW,13.8,-,N/A,,Clear,300,2013-05-12 20:34:00
3:54 PM,58.1,16.2,19,30.12,10.0,NW,12.7,-,N/A,,Clear,310,2013-05-12 20:54:00
4:14 PM,58.6,16.7,19,30.11,10.0,NNW,10.4,17.3,N/A,,Clear,330,2013-05-12 21:14:00
4:34 PM,58.8,15.4,18,30.11,10.0,North,12.7,17.3,N/A,,Clear,350,2013-05-12 21:34:00
4:54 PM,59.0,16.7,19,30.11,10.0,NW,11.5,17.3,N/A,,Clear,320,2013-05-12 21:54:00
5:14 PM,59.0,15.6,18,30.11,10.0,NW,6.9,11.5,N/A,,Clear,310,2013-05-12 22:14:00
5:34 PM,59.7,16.0,18,30.10,10.0,NNW,12.7,17.3,N/A,,Clear,330,2013-05-12 22:34:00
5:54 PM,59.5,15.6,18,30.10,10.0,WNW,10.4,17.3,N/A,,Clear,300,2013-05-12 22:54:00
6:14 PM,59.5,15.8,18,30.10,10.0,WNW,11.5,-,N/A,,Clear,300,2013-05-12 23:14:00
6:34 PM,59.2,15.1,18,30.10,10.0,WNW,9.2,17.3,N/A,,Clear,290,2013-05-12 23:34:00
6:54 PM,59.0,14.7,18,30.09,10.0,WNW,10.4,-,N/A,,Clear,300,2013-05-12 23:54:00
7:14 PM,58.1,14.4,18,30.08,10.0,NNW,5.8,-,N/A,,Clear,340,2013-05-13 00:14:00
7:34 PM,58.1,14.5,18,30.08,10.0,NNW,6.9,-,N/A,,Clear,340,2013-05-13 00:34:00
7:54 PM,58.1,14.0,18,30.08,10.0,NNW,8.1,-,N/A,,Clear,340,2013-05-13 00:54:00
8:14 PM,57.2,14.2,18,30.09,10.0,NNW,4.6,-,N/A,,Clear,340,2013-05-13 01:14:00
8:34 PM,57.0,13.3,18,30.09,10.0,NNW,3.5,-,N/A,,Clear,340,2013-05-13 01:34:00
8:54 PM,56.3,14.4,19,30.09,10.0,Calm,Calm,-,N/A,,Clear,0,2013-05-13 01:54:00
9:14 PM,54.1,17.6,24,30.10,10.0,Calm,Calm,-,N/A,,Clear,0,2013-05-13 02:14:00
9:34 PM,53.1,17.6,25,30.10,10.0,Calm,Calm,-,N/A,,Clear,0,2013-05-13 02:34:00
9:54 PM,53.8,17.4,24,30.11,10.0,Calm,Calm,-,N/A,,Clear,0,2013-05-13 02:54:00
10:14 PM,49.8,23.9,36,30.11,10.0,Calm,Calm,-,N/A,,Clear,0,2013-05-13 03:14:00
10:34 PM,49.1,27.1,43,30.11,10.0,Calm,Calm,-,N/A,,Clear,0,2013-05-13 03:34:00
10:54 PM,47.7,27.9,46,30.11,10.0,Calm,Calm,-,N/A,,Clear,0,2013-05-13 03:54:00
11:14 PM,46.4,27.5,48,30.11,10.0,Calm,Calm,-,N/A,,Clear,0,2013-05-13 04:14:00
11:34 PM,45.7,28.2,51,30.11,10.0,Calm,Calm,-,N/A,,Clear,0,2013-05-13 04:34:00
11:54 PM,45.0,28.8,53,30.11,10.0,Calm,Calm,-,N/A,,Clear,0,2013-05-13 04:54:00